Date,TemperatureHighF,TemperatureAvgF,TemperatureLowF,DewpointHighF,DewpointAvgF,DewpointLowF,HumidityHigh,HumidityAvg,HumidityLow,PressureMaxIn,PressureMinIn,WindSpeedMaxMPH,WindSpeedAvgMPH,GustSpeedMaxMPH,PrecipitationSumIn
2013-1-1,59,45,34,41,27,6,75,53,17,29.97,29.53,0,0,0,0.32
2013-1-2,54,42,33,40,24,13,76,54,21,30.33,29.97,0,0,0,0.00
2013-1-3,54,50,46,44,39,26,75,66,39,30.59,30.33,0,0,0,0.08
2013-1-4,52,50,49,38,30,26,62,47,36,30.59,30.53,0,0,0,0.00
2013-1-5,50,49,47,38,31,26,72,51,39,30.53,30.47,0,0,0,0.00
2013-1-6,48,46,46,38,31,21,72,56,36,30.47,30.36,0,0,0,0.00
2013-1-7,50,46,44,24,20,16,41,35,27,30.36,30.24,0,0,0,0.00
2013-1-8,44,41,40,30,24,18,67,51,38,30.30,30.21,0,0,0,0.00
2013-1-9,44,42,40,36,25,14,75,54,32,30.21,30.00,0,0,0,0.08
2013-1-10,48,46,44,40,38,37,76,75,73,29.97,29.77,0,0,0,0.08
2013-1-11,46,41,33,38,26,14,76,58,28,30.00,29.83,0,0,0,0.04
2013-1-12,44,40,34,37,33,25,76,74,67,29.94,29.74,0,0,0,0.12
2013-1-13,42,39,31,34,24,6,76,56,32,29.91,29.74,0,0,0,0.00
2013-1-14,40,31,24,29,11,-3,76,47,19,29.94,29.56,0,0,0,0.00
2013-1-15,43,35,30,30,21,5,77,61,23,29.74,29.50,0,0,0,0.28
2013-1-16,38,27,19,25,7,-5,73,46,19,29.85,29.71,0,0,0,0.00
2013-1-17,38,23,14,18,1,-6,69,40,19,30.00,29.85,0,0,0,0.00
2013-1-18,32,26,18,18,6,-3,61,44,23,29.88,29.29,0,0,0,0.00
2013-1-19,33,30,29,19,12,8,65,46,34,29.26,29.15,0,0,0,0.00
2013-1-20,33,30,26,25,9,2,71,43,28,29.26,29.15,0,0,0,0.00
2013-1-21,41,35,33,27,20,10,77,57,28,29.44,29.21,0,0,0,0.16
2013-1-22,37,35,32,29,25,15,77,67,39,29.50,29.44,0,0,0,0.16
2013-1-23,40,37,36,31,27,18,77,68,44,29.65,29.50,0,0,0,0.00
2013-1-24,37,33,27,30,18,2,77,55,30,30.00,29.62,0,0,0,0.00
2013-1-25,33,28,25,7,4,0,41,34,25,30.03,29.71,0,0,0,0.00
2013-1-26,45,34,30,28,13,4,76,45,28,29.85,29.65,0,0,0,0.00
2013-1-27,58,42,32,32,22,12,77,48,22,29.80,29.50,0,0,0,0.16
2013-1-28,57,43,30,36,20,8,77,47,17,29.91,29.68,0,0,0,0.00
2013-1-29,56,53,50,43,32,22,73,47,29,29.85,29.77,0,0,0,0.12
2013-1-30,63,54,43,45,27,9,69,37,17,30.09,29.71,0,0,0,0.16
2013-1-31,56,47,38,32,21,13,71,37,21,30.12,29.94,0,0,0,0.00
2013-2-1,50,47,40,40,31,18,75,56,31,29.94,29.29,0,0,0,0.28
2013-2-2,52,39,31,33,20,4,77,53,18,30.06,29.41,0,0,0,0.00
2013-2-3,48,38,29,36,19,4,77,53,19,30.18,29.94,0,0,0,0.04
2013-2-4,59,49,44,41,28,7,76,51,19,29.94,29.88,0,0,0,0.08
2013-2-5,50,41,33,29,15,1,73,37,19,29.88,29.41,0,0,0,0.08
2013-2-6,52,41,37,33,18,5,75,44,18,29.80,29.29,0,0,0,0.20
2013-2-7,53,39,32,22,11,1,57,34,16,29.97,29.80,0,0,0,0.00
2013-2-8,56,37,28,27,15,2,75,45,16,30.00,29.85,0,0,0,0.00
2013-2-9,44,35,29,28,18,2,77,55,20,30.03,29.91,0,0,0,0.04
2013-2-10,37,35,31,30,17,6,76,50,30,29.88,29.18,0,0,0,0.20
2013-2-11,58,43,36,34,22,7,77,50,17,29.53,29.18,0,0,0,0.12
2013-2-12,39,36,32,18,10,-1,48,35,22,29.97,29.53,0,0,0,0.00
2013-2-13,41,34,31,3,-1,-5,28,22,18,30.15,29.97,0,0,0,0.00
2013-2-14,45,35,31,36,18,-5,76,52,20,30.12,29.80,0,0,0,0.24
2013-2-15,62,44,32,39,23,7,77,51,16,30.12,29.88,0,0,0,0.00
2013-2-16,62,39,26,30,15,3,76,44,16,30.15,30.09,0,0,0,0.00
2013-2-17,48,35,27,31,17,5,78,53,19,30.12,29.97,0,0,0,0.00
2013-2-18,50,34,27,30,16,2,77,51,16,30.00,29.94,0,0,0,0.00
2013-2-19,59,39,25,32,12,1,77,37,15,30.00,29.91,0,0,0,0.00
2013-2-20,54,38,27,30,11,-1,77,39,16,30.03,29.94,0,0,0,0.00
2013-2-21,44,32,26,9,1,-5,44,27,18,30.03,29.91,0,0,0,0.00
2013-2-22,34,30,27,4,-2,-7,36,25,20,29.91,29.83,0,0,0,0.00
2013-2-23,32,29,21,4,-4,-8,43,23,20,29.94,29.83,0,0,0,0.00
2013-2-24,38,33,27,23,8,-3,66,36,23,30.00,29.91,0,0,0,0.00
2013-2-25,37,34,32,26,18,10,74,52,33,30.09,29.97,0,0,0,0.12
2013-2-26,47,37,34,30,17,3,78,49,19,30.30,30.09,0,0,0,0.08
2013-2-27,40,37,35,22,18,15,59,45,37,30.30,30.27,0,0,0,0.00
2013-2-28,37,36,34,26,19,9,72,52,32,30.27,30.15,0,0,0,0.00
2013-3-1,40,38,36,18,12,6,47,36,26,30.18,30.15,0,0,0,0.00
2013-3-2,42,37,35,6,3,1,27,23,21,30.18,30.12,0,0,0,0.00
2013-3-3,52,39,28,15,6,2,52,26,16,30.12,29.94,0,0,0,0.00
2013-3-4,66,43,28,28,16,4,77,40,15,29.94,29.65,0,0,0,0.00
2013-3-5,73,51,34,32,14,6,71,27,14,29.65,29.47,0,0,0,0.00
2013-3-6,70,54,46,29,16,10,45,24,14,29.47,29.35,0,0,0,0.00
2013-3-7,61,52,43,44,34,22,76,55,24,29.38,29.26,0,0,0,0.00
2013-3-8,58,51,42,50,33,20,76,55,24,29.47,29.23,0,0,0,0.08
2013-3-9,75,54,40,43,27,11,76,44,13,29.50,29.47,0,0,0,0.00
2013-3-10,48,42,36,40,22,8,77,48,22,29.50,29.44,0,0,0,0.00
2013-3-11,38,33,30,26,19,9,74,56,31,29.50,29.29,0,0,0,0.08
2013-3-12,30,28,26,18,10,-1,67,46,31,29.59,29.26,0,0,0,0.00
2013-3-13,57,30,12,21,3,-7,74,34,15,29.77,29.59,0,0,0,0.32
2013-3-14,54,35,24,33,12,-2,76,46,15,29.91,29.77,0,0,0,0.08
2013-3-15,53,37,21,30,8,-1,74,34,16,29.91,29.77,0,0,0,0.00
2013-3-16,52,43,37,26,10,-1,52,28,16,29.77,29.41,0,0,0,0.04
2013-3-17,56,43,32,32,22,8,76,46,17,29.41,29.15,0,0,0,0.52
2013-3-18,50,38,31,34,21,8,78,53,19,29.26,29.12,0,0,0,0.16
2013-3-19,62,44,35,35,22,6,77,48,15,29.38,29.26,0,0,0,0.20
2013-3-20,54,43,33,35,21,7,77,46,18,29.85,29.35,0,0,0,0.04
2013-3-21,52,42,32,32,18,7,77,44,18,29.91,29.80,0,0,0,0.00
2013-3-22,62,48,39,20,12,5,39,23,16,29.80,29.53,0,0,0,0.00
2013-3-23,58,48,41,25,12,6,53,25,17,29.62,29.53,0,0,0,0.00
2013-3-24,47,41,38,20,12,4,45,31,19,29.68,29.62,0,0,0,0.00
2013-3-25,51,42,36,8,3,-1,27,19,16,29.71,29.65,0,0,0,0.00
2013-3-26,50,40,36,6,0,-2,19,18,16,29.71,29.65,0,0,0,0.00
2013-3-27,54,41,35,8,1,-3,20,18,15,29.68,29.62,0,0,0,0.00
2013-3-28,53,40,28,14,3,-2,42,22,16,29.74,29.65,0,0,0,0.00
2013-3-29,53,37,23,19,4,-3,62,28,15,29.74,29.59,0,0,0,0.00
2013-3-30,45,37,26,3,-1,-5,34,20,17,29.74,29.56,0,0,0,0.00
2013-3-31,46,36,24,23,4,-3,69,30,17,29.80,29.71,0,0,0,0.00
2013-4-1,56,40,30,8,3,-2,39,22,15,29.68,29.53,0,0,0,0.00
2013-4-2,54,42,28,8,2,-5,31,18,15,29.74,29.56,0,0,0,0.00
2013-4-3,53,42,28,7,2,-6,31,19,16,29.77,29.68,0,0,0,0.00
2013-4-4,50,42,35,7,3,-1,31,20,16,29.68,29.56,0,0,0,0.00
2013-4-5,49,42,35,21,5,-1,55,23,16,29.83,29.53,0,0,0,0.00
2013-4-6,49,42,32,14,6,1,41,23,16,30.12,29.83,0,0,0,0.00
2013-4-7,66,43,25,21,10,1,70,32,15,30.12,29.74,0,0,0,0.00
2013-4-8,61,47,38,19,6,0,43,19,15,29.74,29.47,0,0,0,0.00
2013-4-9,67,48,38,37,23,13,70,40,15,29.47,29.26,0,0,0,0.12
2013-4-10,66,51,46,44,26,12,74,43,15,29.68,29.44,0,0,0,0.12
2013-4-11,68,56,49,43,25,14,74,34,15,29.50,29.38,0,0,0,0.08
2013-4-12,69,52,45,42,25,12,76,39,15,29.74,29.44,0,0,0,0.08
2013-4-13,64,54,41,45,26,12,73,39,16,30.00,29.74,0,0,0,0.08
2013-4-14,88,68,54,31,23,15,40,19,10,30.00,29.85,0,0,0,0.00
2013-4-15,79,61,48,47,27,12,70,34,12,30.06,29.91,0,0,0,0.00
2013-4-16,76,60,46,40,23,11,75,28,13,30.06,29.97,0,0,0,0.00
2013-4-17,86,69,55,28,22,16,31,18,11,30.09,29.80,0,0,0,0.00
2013-4-18,74,61,50,31,19,8,38,21,13,30.09,29.80,0,0,0,0.00
2013-4-19,71,50,39,35,18,9,77,31,15,30.30,30.12,0,0,0,0.00
2013-4-20,61,49,40,30,14,1,67,27,15,30.33,30.18,0,0,0,0.00
2013-4-21,74,52,33,27,15,0,67,28,13,30.18,29.94,0,0,0,0.00
2013-4-22,72,51,30,28,14,-2,65,26,13,30.00,29.94,0,0,0,0.00
2013-4-23,79,54,39,42,23,13,74,36,13,30.15,30.00,0,0,0,0.00
2013-4-24,88,63,40,45,27,16,77,36,11,30.21,30.12,0,0,0,0.00
2013-4-25,94,69,47,47,28,15,76,31,9,30.15,29.91,0,0,0,0.00
2013-4-26,70,54,40,33,25,15,60,35,14,29.91,29.74,0,0,0,0.00
2013-4-27,57,47,38,37,17,4,78,37,15,29.85,29.74,0,0,0,0.00
2013-4-28,68,49,35,29,13,4,69,26,14,29.94,29.85,0,0,0,0.00
2013-4-29,70,51,31,31,16,5,69,30,14,30.03,29.91,0,0,0,0.00
2013-4-30,62,49,38,38,17,5,70,31,15,30.06,30.00,0,0,0,0.04
2013-5-1,66,53,45,48,27,14,76,42,15,30.06,29.88,0,0,0,0.24
2013-5-2,78,58,47,48,31,14,78,45,13,29.97,29.94,0,0,0,0.00
2013-5-3,77,56,41,41,24,8,78,37,13,30.00,29.91,0,0,0,0.00
2013-5-4,74,54,36,39,22,12,77,35,13,30.09,30.00,0,0,0,0.00
2013-5-5,81,60,47,30,21,12,48,25,12,30.12,30.03,0,0,0,0.00
2013-5-6,70,56,40,42,26,15,76,39,15,30.06,29.94,0,0,0,0.00
2013-5-7,89,62,45,50,31,16,78,42,10,29.97,29.80,0,0,0,0.00
2013-5-8,82,61,47,51,32,16,78,43,11,29.80,29.68,0,0,0,0.08
2013-5-9,76,60,48,32,19,7,51,23,13,29.88,29.77,0,0,0,0.00
2013-5-10,64,55,48,21,14,6,28,20,16,29.94,29.83,0,0,0,0.00
2013-5-11,75,59,49,38,20,10,61,24,13,29.94,29.85,0,0,0,0.00
2013-5-12,74,58,44,31,18,9,61,22,13,30.00,29.88,0,0,0,0.00
2013-5-13,72,59,52,33,20,10,47,23,14,29.97,29.83,0,0,0,0.00
2013-5-14,60,52,50,16,12,9,23,19,17,29.85,29.74,0,0,0,0.00
2013-5-15,49,49,49,36,32,28,61,52,44,29.47,29.47,0,0,0,0.00
2013-5-16,57,50,46,43,36,18,78,63,22,29.47,29.35,0,0,0,0.04
2013-5-17,69,54,43,42,25,10,78,41,15,29.62,29.41,0,0,0,0.00
2013-5-18,67,54,37,45,25,14,76,40,15,29.65,29.53,0,0,0,0.00
2013-5-19,65,55,50,46,36,16,77,55,16,29.74,29.56,0,0,0,0.20
2013-5-20,56,52,50,46,44,39,78,73,53,29.74,29.68,0,0,0,0.72
2013-5-21,57,54,51,47,37,26,77,56,31,29.88,29.68,0,0,0,0.52
2013-5-22,72,59,46,37,19,11,69,23,14,29.94,29.88,0,0,0,0.00
2013-5-23,65,51,36,31,19,8,74,32,15,29.88,29.74,0,0,0,0.00
2013-5-24,64,44,33,37,22,9,76,48,16,29.80,29.65,0,0,0,0.24
2013-5-25,73,51,37,39,20,7,78,36,14,30.00,29.71,0,0,0,0.00
2013-5-26,75,55,40,38,22,8,77,35,13,30.00,29.88,0,0,0,0.00
2013-5-27,83,60,35,33,21,11,67,28,11,29.88,29.56,0,0,0,0.00
2013-5-28,69,56,48,46,25,10,74,34,15,29.56,29.38,0,0,0,0.12
2013-5-29,78,57,39,41,24,13,74,35,13,29.59,29.50,0,0,0,0.08
2013-5-30,66,55,49,47,36,19,78,53,18,29.74,29.56,0,0,0,0.12
2013-5-31,74,59,51,43,30,20,72,38,16,29.91,29.74,0,0,0,0.00
2013-6-1,80,63,49,45,28,16,78,34,12,30.09,29.91,0,0,0,0.00
2013-6-2,74,60,44,35,22,14,54,26,13,30.21,30.09,0,0,0,0.00
2013-6-3,66,54,41,38,20,11,76,31,15,30.27,30.12,0,0,0,0.00
2013-6-4,72,57,45,36,21,12,67,29,14,30.15,29.94,0,0,0,0.00
2013-6-5,84,65,47,44,27,16,77,32,11,29.97,29.83,0,0,0,0.00
2013-6-6,92,69,51,50,30,19,66,29,10,29.88,29.83,0,0,0,0.04
2013-6-7,92,74,56,55,32,18,76,31,10,29.91,29.85,0,0,0,0.00
2013-6-8,81,69,57,33,24,16,40,19,12,29.88,29.71,0,0,0,0.00
2013-6-9,62,57,54,46,33,25,67,41,26,29.74,29.68,0,0,0,0.12
2013-6-10,81,63,52,36,24,16,46,25,12,29.83,29.74,0,0,0,0.00
2013-6-11,80,64,50,54,32,20,73,35,13,29.88,29.83,0,0,0,0.00
2013-6-12,78,68,59,51,35,24,71,33,15,29.91,29.85,0,0,0,0.00
2013-6-13,71,62,50,47,34,22,67,36,19,30.00,29.83,0,0,0,0.12
2013-6-14,85,64,44,44,26,15,74,32,11,30.03,29.83,0,0,0,0.00
2013-6-15,80,63,50,47,26,14,77,30,12,29.85,29.74,0,0,0,0.00
2013-6-16,90,69,51,32,24,16,46,22,10,29.88,29.71,0,0,0,0.00
2013-6-17,89,65,56,58,38,26,73,42,13,29.74,29.62,0,0,0,0.12
2013-6-18,100,78,62,61,41,23,78,39,8,29.80,29.74,0,0,0,0.08
2013-6-19,94,70,62,58,46,28,77,50,11,29.80,29.71,0,0,0,0.52
2013-6-20,88,69,60,66,42,20,78,48,11,29.80,29.68,0,0,0,0.20
2013-6-21,80,67,60,51,29,19,72,28,12,29.88,29.71,0,0,0,0.08
2013-6-22,68,63,58,54,35,20,78,40,17,29.88,29.71,0,0,0,0.04
2013-6-23,73,61,54,36,25,19,47,26,16,29.94,29.77,0,0,0,0.12
2013-6-24,71,58,47,36,23,14,52,28,14,30.18,29.94,0,0,0,0.00
2013-6-25,82,60,42,43,25,14,74,34,11,30.27,30.18,0,0,0,0.00
2013-6-26,90,65,42,35,24,16,69,25,10,30.30,30.21,0,0,0,0.00
2013-6-27,82,63,50,46,26,16,63,28,12,30.21,30.09,0,0,0,0.08
2013-6-28,71,62,54,48,36,26,74,41,19,30.09,30.00,0,0,0,0.04
2013-6-29,83,65,51,50,30,16,71,32,11,30.15,29.97,0,0,0,0.00
2013-6-30,92,69,46,52,31,20,74,35,9,30.15,30.00,0,0,0,0.00
2013-7-1,89,68,56,51,34,20,77,37,10,30.00,29.88,0,0,0,0.00
2013-7-2,96,70,50,53,30,20,76,32,9,29.88,29.62,0,0,0,0.00
2013-7-3,82,64,57,52,36,20,76,42,12,29.91,29.59,0,0,0,0.04
2013-7-4,81,64,50,49,31,20,75,36,12,30.15,29.91,0,0,0,0.00
2013-7-5,91,70,57,55,35,19,77,38,10,30.24,30.15,0,0,0,0.00
2013-7-6,91,70,52,55,35,21,78,39,9,30.24,30.15,0,0,0,0.00
2013-7-7,95,78,59,53,32,22,73,25,10,30.21,30.18,0,0,0,0.00
2013-7-8,88,76,59,48,30,20,65,23,10,30.24,30.09,0,0,0,0.00
2013-7-9,89,77,62,52,31,22,68,23,11,30.15,29.97,0,0,0,0.00
2013-7-10,85,71,57,45,28,20,62,23,11,30.00,29.91,0,0,0,0.00
2013-7-11,76,63,52,41,25,16,66,28,13,30.03,29.97,0,0,0,0.00
2013-7-12,83,65,48,43,27,17,71,29,11,30.03,30.00,0,0,0,0.00
2013-7-13,80,66,51,49,30,19,77,34,12,30.06,30.03,0,0,0,0.00
2013-7-14,95,74,54,51,32,21,76,30,8,30.09,30.00,0,0,0,0.00
2013-7-15,103,78,58,51,33,22,70,27,9,30.03,29.94,0,0,0,0.00
2013-7-16,97,77,59,51,31,18,70,25,9,31.01,30.03,0,0,0,0.00
2013-7-17,92,77,62,44,29,21,46,20,9,17.72,17.72,0,0,0,0.00
2013-7-18,94,76,60,52,33,22,68,26,9,17.72,17.72,0,0,0,0.00
2013-7-19,93,78,63,50,31,20,61,22,9,17.72,17.72,0,0,0,0.00
2013-7-20,94,78,61,40,28,22,44,17,9,17.72,17.72,0,0,0,0.00
2013-7-21,104,81,62,45,32,21,52,20,9,17.72,17.72,0,0,0,0.00
2013-7-22,110,86,65,42,32,22,43,17,8,17.72,17.72,0,0,0,0.00
2013-7-23,99,79,67,55,35,23,60,24,9,17.72,17.72,0,0,0,0.04
2013-7-24,102,76,63,58,37,23,76,33,8,17.72,17.72,0,0,0,0.00
2013-7-25,103,81,61,56,35,20,73,28,8,17.72,17.72,0,0,0,0.00
2013-7-26,101,78,67,63,41,23,78,35,10,17.72,17.72,0,0,0,0.24
2013-7-27,104,78,65,63,42,24,78,38,8,17.72,17.72,0,0,0,0.83
2013-7-28,94,74,59,53,34,20,71,30,9,17.72,17.72,0,0,0,0.00
2013-7-29,90,72,60,53,34,19,73,32,10,17.72,17.72,0,0,0,0.28
2013-7-30,78,68,60,55,38,20,79,41,13,17.72,17.72,0,0,0,0.00
2013-7-31,99,77,64,47,32,21,54,23,9,17.72,17.72,0,0,0,0.00
2013-8-1,109,81,61,58,39,21,75,33,8,17.72,17.72,0,0,0,0.00
2013-8-2,104,85,65,54,35,22,67,22,9,17.72,17.72,0,0,0,0.00
2013-8-3,95,76,60,35,26,16,36,18,9,17.72,17.72,0,0,0,0.00
2013-8-4,97,75,55,48,30,17,69,26,9,29.97,17.72,0,0,0,0.00
2013-8-5,100,76,52,47,29,19,69,25,8,29.97,29.74,0,0,0,0.00
2013-8-6,94,74,56,50,28,18,72,22,9,29.94,29.77,0,0,0,0.00
2013-8-7,77,66,61,58,40,25,77,44,15,29.85,29.68,0,0,0,1.04
2013-8-8,90,68,54,52,33,19,78,38,10,30.06,29.85,0,0,0,0.00
2013-8-9,89,69,53,50,32,18,74,35,10,30.09,30.00,0,0,0,0.00
2013-8-10,90,64,50,55,31,14,75,37,10,30.09,30.06,0,0,0,0.00
2013-8-11,91,68,47,49,29,17,74,33,10,30.09,29.94,0,0,0,0.00
2013-8-12,84,68,55,53,30,16,75,32,11,29.97,29.91,0,0,0,0.00
2013-8-13,86,64,48,43,27,12,76,32,11,30.12,30.00,0,0,0,0.00
2013-8-14,94,66,45,41,27,17,69,30,9,30.15,30.09,0,0,0,0.00
2013-8-15,101,73,51,50,32,18,76,34,8,30.12,29.97,0,0,0,0.00
2013-8-16,104,75,54,49,33,20,74,30,8,29.97,29.85,0,0,0,0.00
2013-8-17,92,71,56,56,34,20,74,32,9,29.94,29.83,0,0,0,0.00
2013-8-18,88,70,62,57,42,23,76,43,12,29.83,29.77,0,0,0,0.40
2013-8-19,86,68,52,56,34,15,78,38,11,30.21,29.83,0,0,0,0.00
2013-8-20,92,70,47,44,28,16,76,29,9,30.27,30.18,0,0,0,0.00
2013-8-21,91,70,49,45,28,18,71,28,9,30.21,30.03,0,0,0,0.00
2013-8-22,87,68,55,48,29,17,66,29,10,30.03,29.88,0,0,0,0.00
2013-8-23,101,74,54,48,30,19,69,25,8,29.91,29.71,0,0,0,0.00
2013-8-24,76,65,59,54,37,24,75,38,15,29.80,29.68,0,0,0,0.04
2013-8-25,62,58,54,54,51,48,78,77,74,29.85,29.74,0,0,0,1.36
2013-8-26,85,66,50,54,33,17,79,40,11,29.88,29.83,0,0,0,0.00
2013-8-27,82,67,58,45,31,19,54,30,11,29.91,29.85,0,0,0,0.00
2013-8-28,91,70,53,47,32,19,66,31,10,30.06,29.94,0,0,0,0.00
2013-8-29,93,68,51,47,31,16,73,34,9,30.09,30.03,0,0,0,0.00
2013-8-30,91,66,48,47,31,19,75,36,9,30.09,30.00,0,0,0,0.00
2013-8-31,89,68,56,51,35,19,71,36,10,30.21,30.06,0,0,0,0.00
2013-9-1,79,59,45,37,25,17,62,31,13,30.33,30.21,0,0,0,0.00
2013-9-2,88,65,47,42,28,19,70,30,11,30.30,30.21,0,0,0,0.00
2013-9-3,94,68,49,48,31,19,75,36,9,30.27,30.12,0,0,0,0.00
2013-9-4,100,72,53,51,34,21,75,34,9,30.12,29.88,0,0,0,0.00
2013-9-5,105,78,56,54,37,20,75,33,9,29.88,29.65,0,0,0,0.00
2013-9-6,82,64,56,53,37,21,73,42,13,29.80,29.65,0,0,0,0.16
2013-9-7,88,65,50,47,28,13,74,32,11,29.94,29.80,0,0,0,0.00
2013-9-8,86,64,47,40,26,13,63,28,11,30.03,29.94,0,0,0,0.00
2013-9-9,63,55,46,54,40,19,74,59,19,30.03,29.80,0,0,0,0.51
2013-9-10,75,60,51,48,30,16,75,40,13,30.03,29.88,0,0,0,0.00
2013-9-11,69,59,53,45,32,21,74,39,17,30.03,29.97,0,0,0,0.00
2013-9-12,69,60,54,50,36,24,73,45,20,30.03,29.97,0,0,0,0.00
2013-9-13,76,62,51,56,45,32,75,57,21,30.06,29.97,0,0,0,0.04
2013-9-14,66,60,55,55,45,26,76,62,23,29.97,29.83,0,0,0,0.24
2013-9-15,77,61,47,49,28,14,77,36,13,29.88,29.68,0,0,0,0.00
2013-9-16,72,57,45,49,33,14,77,48,14,29.68,29.56,0,0,0,0.20
2013-9-17,65,55,43,55,36,18,77,56,18,29.65,29.38,0,0,0,0.12
2013-9-18,71,60,53,54,35,20,77,43,17,29.77,29.41,0,0,0,0.04
2013-9-19,76,57,45,53,30,15,76,44,13,29.88,29.77,0,0,0,0.00
2013-9-20,84,64,50,42,30,17,68,32,11,30.12,29.83,0,0,0,0.00
2013-9-21,85,62,46,47,32,19,76,43,11,30.24,30.12,0,0,0,0.00
2013-9-22,75,64,53,57,40,28,75,47,18,30.27,30.21,0,0,0,0.00
2013-9-23,84,67,54,53,36,19,68,39,11,30.24,30.00,0,0,0,0.00
2013-9-24,88,64,49,49,35,19,77,45,10,30.00,29.80,0,0,0,0.00
2013-9-25,91,64,49,56,38,20,76,48,10,29.80,29.71,0,0,0,0.00
2013-9-26,80,64,55,57,39,23,76,46,15,29.88,29.77,0,0,0,0.00
2013-9-27,79,64,56,49,36,20,73,42,12,29.88,29.74,0,0,0,0.00
2013-9-28,76,64,58,49,37,24,67,41,15,29.77,29.56,0,0,0,0.00
2013-9-29,78,64,56,56,45,28,77,56,17,29.56,29.47,0,0,0,0.83
2013-9-30,73,62,57,54,41,28,76,51,18,29.62,29.53,0,0,0,0.00
2013-10-1,74,61,58,53,42,26,76,53,18,29.71,29.62,0,0,0,0.00
2013-10-2,88,65,54,49,36,23,71,39,13,29.80,29.71,0,0,0,0.00
2013-10-3,81,66,57,51,39,24,75,42,15,29.80,29.68,0,0,0,0.00
2013-10-4,78,67,58,55,38,24,75,40,15,29.88,29.74,0,0,0,0.00
2013-10-5,73,61,53,53,38,22,76,48,16,30.15,29.85,0,0,0,0.00
2013-10-6,84,61,52,58,38,18,76,50,11,30.21,30.15,0,0,0,0.00
2013-10-7,83,61,48,48,33,15,74,44,11,30.21,30.15,0,0,0,0.00
2013-10-8,87,62,50,53,34,17,75,45,11,30.21,30.15,0,0,0,0.00
2013-10-9,70,59,51,50,39,27,70,50,22,30.21,29.85,0,0,0,0.00
2013-10-10,60,50,40,35,24,14,74,38,17,29.88,29.83,0,0,0,0.04
2013-10-11,56,48,44,39,27,14,71,46,20,29.85,29.74,0,0,0,0.00
2013-10-12,63,48,39,39,27,11,77,50,16,29.97,29.83,0,0,0,0.00
2013-10-13,65,48,37,40,22,11,76,44,15,29.97,29.83,0,0,0,0.00
2013-10-14,69,54,50,28,23,16,42,31,15,29.83,29.77,0,0,0,0.00
2013-10-21,78,66,60,51,35,23,67,35,13,29.77,29.68,0,0,0,0.00
2013-10-22,76,63,55,52,40,23,77,49,15,29.68,29.44,0,0,0,0.00
2013-10-23,78,64,57,47,30,20,67,30,13,29.77,29.44,0,0,0,0.04
2013-10-24,67,57,51,50,41,24,76,58,20,29.94,29.77,0,0,0,0.00
2013-10-25,66,59,56,50,43,32,75,59,35,29.74,29.65,0,0,0,0.00
2013-10-27,57,57,57,48,47,47,70,69,68,29.65,29.62,0,0,0,0.00
2013-10-28,72,59,48,40,24,13,55,28,15,29.71,29.35,0,0,0,0.08
2013-10-29,69,51,41,36,22,10,67,36,15,30.03,29.71,0,0,0,0.00
2013-10-30,71,48,37,45,25,10,76,48,14,30.18,30.03,0,0,0,0.00
2013-10-31,69,50,37,46,23,12,77,43,15,30.18,30.03,0,0,0,0.00
2013-11-1,53,51,49,44,37,20,76,61,27,30.03,29.53,0,0,0,0.64
2013-11-2,66,57,48,51,37,23,76,53,23,29.62,29.44,0,0,0,0.12
2013-11-3,64,52,45,42,20,10,77,32,16,29.71,29.35,0,0,0,0.20
2013-11-4,59,50,36,48,29,17,76,49,22,29.47,29.06,0,0,0,0.20
2013-11-5,55,46,34,46,32,22,77,62,30,29.53,29.26,0,0,0,0.20
2013-11-6,65,57,51,48,35,23,75,47,24,29.68,29.53,0,0,0,0.04
2013-11-7,67,59,54,50,36,27,75,45,23,29.74,29.65,0,0,0,0.48
2013-11-8,58,53,46,49,41,24,76,65,37,29.74,29.56,0,0,0,0.44
2013-11-9,59,47,38,40,31,14,77,57,19,29.85,29.62,0,0,0,0.12
2013-11-10,64,46,34,39,26,7,77,52,16,30.21,29.44,0,0,0,0.56
2013-11-11,58,43,30,40,18,8,76,45,17,30.30,30.24,0,0,0,0.04
2013-11-12,51,50,46,43,31,8,74,54,19,30.30,30.12,0,0,0,0.12
2013-11-13,57,44,33,42,24,11,76,51,18,30.42,30.30,0,0,0,0.04
2013-11-14,58,41,31,44,28,18,77,63,25,30.30,30.06,0,0,0,0.24
2013-11-15,52,45,37,36,24,15,76,47,26,30.33,30.18,0,0,0,0.00
2013-11-16,45,40,34,33,23,12,77,54,28,30.39,30.27,0,0,0,0.00
2013-11-17,48,42,38,21,17,13,47,37,26,30.27,30.27,0,0,0,0.00
2013-11-18,47,42,37,26,19,12,55,41,27,30.27,30.27,0,0,0,0.00
2013-11-19,59,41,32,34,18,5,75,42,17,30.27,0.00,0,0,0,0.00
2013-11-20,51,35,29,32,21,4,78,62,19,0.00,0.00,0,0,0,0.00
2013-11-23,44,44,42,14,13,12,31,28,28,30.03,0.00,0,0,0,0.00
2013-11-24,50,40,29,35,22,14,77,51,27,30.30,30.06,0,0,0,0.00
2013-11-25,49,43,39,24,18,11,52,38,24,30.47,30.30,0,0,0,0.00
2013-11-26,53,42,33,33,23,12,74,50,21,30.53,30.45,0,0,0,0.00
2013-11-27,56,42,34,35,24,8,74,52,19,30.45,30.39,0,0,0,0.00
2013-11-28,46,40,32,36,28,16,76,63,30,30.47,30.42,0,0,0,0.00
2013-11-29,52,47,42,40,34,21,75,63,29,30.42,30.03,0,0,0,0.00
2013-11-30,52,43,34,37,26,17,78,56,26,30.30,30.00,0,0,0,0.04
2013-12-1,51,43,35,37,26,16,77,53,26,30.36,30.30,0,0,0,0.00
2013-12-2,52,42,30,33,21,10,74,46,21,30.36,30.27,0,0,0,0.00
2013-12-3,54,34,28,30,20,10,78,61,20,30.30,30.24,0,0,0,0.00
2013-12-4,50,42,32,35,25,16,75,55,27,30.36,30.27,0,0,0,0.00
2013-12-5,56,44,31,38,22,6,76,48,17,30.36,30.09,0,0,0,0.04
2013-12-6,57,41,32,36,21,4,75,50,17,30.36,30.15,0,0,0,0.00
2013-12-7,52,44,38,36,23,17,73,46,27,30.33,30.27,0,0,0,0.00
2013-12-8,55,42,30,33,21,8,64,45,20,30.33,30.24,0,0,0,0.00
2013-12-9,58,35,27,36,18,9,77,54,17,30.39,30.33,0,0,0,0.00
2013-12-10,56,33,24,30,16,8,77,53,18,30.42,30.39,0,0,0,0.00
2013-12-11,54,31,23,31,14,5,78,53,18,30.42,30.30,0,0,0,0.00
2013-12-12,46,30,23,30,13,7,78,52,25,30.30,30.21,0,0,0,0.00
2013-12-13,55,34,23,34,21,11,77,60,20,30.21,30.09,0,0,0,0.08
2013-12-14,60,43,34,42,26,14,79,55,19,30.36,30.15,0,0,0,0.04
2013-12-15,62,46,39,36,18,10,76,34,16,30.30,30.21,0,0,0,0.00
2013-12-16,64,49,36,30,18,10,64,32,16,30.18,30.12,0,0,0,0.00
2013-12-17,55,44,34,38,22,12,78,47,20,30.15,30.03,0,0,0,0.00
2013-12-18,54,47,38,39,24,18,78,42,26,30.03,29.53,0,0,0,0.00
2013-12-19,56,45,34,40,27,16,77,51,22,29.83,29.47,0,0,0,0.16
2013-12-20,58,40,31,40,24,9,78,58,17,30.33,29.83,0,0,0,0.00
2013-12-21,50,44,37,33,18,9,78,37,22,30.33,30.03,0,0,0,0.00
2013-12-22,57,47,42,41,29,21,78,51,27,30.03,29.88,0,0,0,0.40
2013-12-23,55,49,39,40,26,19,78,46,25,30.00,29.41,0,0,0,0.00
2013-12-24,55,51,48,42,27,16,77,43,23,29.41,28.97,0,0,0,0.44
2013-12-25,60,46,40,42,26,14,77,48,21,29.12,28.97,0,0,0,0.20
2013-12-26,58,43,37,38,25,10,78,55,17,29.59,29.12,0,0,0,0.00
2013-12-27,58,50,39,45,32,19,76,52,28,29.53,29.26,0,0,0,0.24
2013-12-28,52,44,39,43,32,15,77,62,31,29.68,29.23,0,0,0,0.79
2013-12-29,59,41,32,34,21,10,74,48,17,30.15,29.68,0,0,0,0.00
2013-12-30,49,41,31,34,23,16,78,52,27,30.18,29.97,0,0,0,0.08
2013-12-31,50,44,0,37,24,14,75,46,26,29.94,29.65,0,0,0,0.16
2014-1-1,53,48,40,37,24,19,78,43,27,29.74,29.29,0,0,0,0.00
2014-1-2,53,50,46,38,26,19,65,40,29,29.47,29.23,0,0,0,0.04